Location: Krasnoyarskiy Pitomnik
(51.1333°N, 71.6167°E)
Time: 18:29:58
(UTC+00:00)

Vanguard 2 - Pass Details

Date: 25 April 2024
Orbit: 553 x 2914 km, 32.9° (Epoch: 22 May)

Event Time Altitude Azimuth Distance (km) Brightness Sun altitude
Exits shadow 18:29:03 21° 130° (SE) 4,351 10.9 -24.7°
Drops below altitude 10° 18:37:03 10° 102° (ESE) 5,568 11.7 -24.9°
Sets 18:43:11 0° 90° (E) 6,736 12.3 -25.0°
